TimeCST,TemperatureF,Dew PointF,Humidity,Sea Level PressureIn,VisibilityMPH,Wind Direction,Wind SpeedMPH,Gust SpeedMPH,PrecipitationIn,Events,Conditions,WindDirDegrees,DateUTC
12:00 AM,67,67,100,30.01,5,,2.3,,,,Mostly Cloudy,,2012-10-04 06:00:00
12:00 AM,68.0,68.0,100,30.15,5.0,Variable,2.3,-,N/A,,Mostly Cloudy,0,2012-10-04 06:00:00
1:00 AM,68.0,68.0,100,30.15,5.0,Calm,Calm,-,N/A,,Scattered Clouds,0,2012-10-04 07:00:00
2:00 AM,68.0,68.0,100,30.12,5.0,Variable,2.3,-,N/A,,Mostly Cloudy,0,2012-10-04 08:00:00
3:00 AM,66.2,66.2,100,30.12,4.3,NNE,5.8,-,N/A,,Mostly Cloudy,30,2012-10-04 09:00:00
4:00 AM,68.0,66.2,94,30.12,5.0,North,6.9,-,N/A,,Mostly Cloudy,10,2012-10-04 10:00:00
5:00 AM,66.2,66.2,100,30.15,5.0,North,5.8,-,N/A,,Scattered Clouds,360,2012-10-04 11:00:00
6:00 AM,65,65,100,30.01,5,NNE,3.5,,,,Mist,30,2012-10-04 12:00:00
6:00 AM,66.2,66.2,100,30.15,5.0,NNE,3.5,-,N/A,,Scattered Clouds,30,2012-10-04 12:00:00
7:00 AM,68.0,66.2,94,30.15,5.0,NNE,3.5,-,N/A,,Mostly Cloudy,20,2012-10-04 13:00:00
8:00 AM,69.8,68.0,94,30.15,5.0,North,10.4,-,N/A,,Mostly Cloudy,360,2012-10-04 14:00:00
9:00 AM,72,68,82,29.99,6,North,11.5,,,,Haze,0,2012-10-04 15:00:00
9:00 AM,71.6,68.0,88,30.18,6.2,North,11.5,-,N/A,,Mostly Cloudy,360,2012-10-04 15:00:00
10:00 AM,75.2,68.0,78,30.18,6.2,North,12.7,-,N/A,,Scattered Clouds,360,2012-10-04 16:00:00
11:00 AM,78.8,68.0,69,30.15,6.2,North,12.7,-,N/A,,Mostly Cloudy,360,2012-10-04 17:00:00
12:00 PM,79,67,59,29.91,7,North,10.4,,,,Haze,0,2012-10-04 18:00:00
12:00 PM,78.8,68.0,69,30.12,6.2,North,10.4,-,N/A,,Mostly Cloudy,360,2012-10-04 18:00:00
1:00 PM,80.6,66.2,61,0.56,6.2,NNE,8.1,-,N/A,,Mostly Cloudy,20,2012-10-04 19:00:00
2:00 PM,82.4,66.2,58,30.06,6.2,North,8.1,-,N/A,,Mostly Cloudy,360,2012-10-04 20:00:00
3:00 PM,82,64,44,29.81,7,North,5.8,,,,Haze,0,2012-10-04 21:00:00
3:00 PM,82.4,64.4,54,30.06,6.2,North,5.8,-,N/A,,Scattered Clouds,360,2012-10-04 21:00:00
4:00 PM,80.6,66.2,61,30.06,6.2,East,4.6,-,N/A,,Scattered Clouds,80,2012-10-04 22:00:00
5:00 PM,78.8,66.2,65,30.06,6.2,ENE,8.1,-,N/A,,Mostly Cloudy,70,2012-10-04 23:00:00
6:00 PM,73,65,70,29.90,7,East,9.2,,,,Haze,90,2012-10-05 00:00:00
6:00 PM,73.4,66.2,78,30.09,6.2,East,9.2,-,N/A,,Mostly Cloudy,90,2012-10-05 00:00:00
7:00 PM,71.6,66.2,83,30.12,6.2,ENE,4.6,-,N/A,,Scattered Clouds,70,2012-10-05 01:00:00
8:00 PM,69.8,66.2,88,30.12,6.2,ENE,3.5,-,N/A,,Scattered Clouds,70,2012-10-05 02:00:00
9:00 PM,69,67,91,30.00,6,North,6.9,,,,Scattered Clouds,0,2012-10-05 03:00:00
9:00 PM,68.0,66.2,94,30.15,6.2,North,6.9,-,N/A,,Scattered Clouds,360,2012-10-05 03:00:00
10:00 PM,68.0,66.2,94,30.15,6.2,North,8.1,-,N/A,,Scattered Clouds,360,2012-10-05 04:00:00
11:00 PM,68.0,66.2,94,30.18,6.2,NE,4.6,-,N/A,,Scattered Clouds,40,2012-10-05 05:00:00